Year,Month,Day,Hour,Minute,Value (Times are PST for temperature in C)
2010,05,03,06,43,6.60
2010,05,03,06,44,6.70
2010,05,03,06,45,6.70
2010,05,03,06,46,6.80
2010,05,03,06,47,6.80
2010,05,03,06,48,6.80
2010,05,03,06,49,6.80
2010,05,03,06,50,6.80
2010,05,03,06,51,6.80
2010,05,03,06,52,6.80
2010,05,03,06,53,6.90
2010,05,03,06,54,6.90
2010,05,03,06,55,6.90
2010,05,03,06,56,7.00
2010,05,03,06,57,7.00
2010,05,03,06,58,7.00
2010,05,03,06,59,7.00
2010,05,03,07,00,7.10
2010,05,03,07,01,7.10
2010,05,03,07,02,7.00
2010,05,03,07,03,7.00
2010,05,03,07,04,7.00
2010,05,03,07,05,7.00
2010,05,03,07,06,7.00
2010,05,03,07,07,7.00
2010,05,03,07,08,7.00
2010,05,03,07,09,6.90
2010,05,03,07,10,6.90
2010,05,03,07,11,6.90
2010,05,03,07,12,6.90
2010,05,03,07,13,6.80
2010,05,03,07,14,6.80
2010,05,03,07,15,6.80
2010,05,03,07,16,6.80
2010,05,03,07,17,6.80
2010,05,03,07,18,6.80
2010,05,03,07,19,6.80
2010,05,03,07,20,6.90
2010,05,03,07,21,6.90
2010,05,03,07,22,6.90
2010,05,03,07,23,7.00
2010,05,03,07,24,7.00
2010,05,03,07,25,7.00
2010,05,03,07,26,7.00
2010,05,03,07,27,7.00
2010,05,03,07,28,7.10
2010,05,03,07,29,7.10
2010,05,03,07,30,7.10
2010,05,03,07,31,7.10
2010,05,03,07,32,7.10
2010,05,03,07,33,7.10
2010,05,03,07,34,7.10
2010,05,03,07,35,7.10
2010,05,03,07,36,7.10
2010,05,03,07,37,7.20
2010,05,03,07,38,7.10
2010,05,03,07,39,7.10
2010,05,03,07,40,7.10
2010,05,03,07,41,7.20
2010,05,03,07,42,7.20
2010,05,03,07,43,7.20
2010,05,03,07,44,7.20
2010,05,03,07,45,7.20
2010,05,03,07,46,7.30
2010,05,03,07,47,7.40
2010,05,03,07,48,7.40
2010,05,03,07,49,7.40
2010,05,03,07,50,7.50
2010,05,03,07,51,7.50
2010,05,03,07,52,7.50
2010,05,03,07,53,7.50
2010,05,03,07,54,7.40
2010,05,03,07,55,7.30
2010,05,03,07,56,7.20
2010,05,03,07,57,7.00
2010,05,03,07,58,6.90
2010,05,03,07,59,6.80
2010,05,03,08,00,6.70
2010,05,03,08,01,6.70
2010,05,03,08,02,6.60
2010,05,03,08,03,6.60
2010,05,03,08,04,6.60
2010,05,03,08,05,6.70
2010,05,03,08,06,6.70
2010,05,03,08,07,6.70
2010,05,03,08,08,6.70
2010,05,03,08,09,6.70
2010,05,03,08,10,6.80
2010,05,03,08,11,6.80
2010,05,03,08,12,6.80
2010,05,03,08,13,6.90
2010,05,03,08,14,6.90
2010,05,03,08,15,7.00
2010,05,03,08,16,7.10
2010,05,03,08,17,7.10
2010,05,03,08,18,7.20
2010,05,03,08,19,7.30
2010,05,03,08,20,7.30
2010,05,03,08,21,7.30
2010,05,03,08,22,7.30
2010,05,03,08,23,7.40
2010,05,03,08,24,7.40
2010,05,03,08,25,7.40
2010,05,03,08,26,7.50
2010,05,03,08,27,7.50
2010,05,03,08,28,7.50
2010,05,03,08,29,7.60
2010,05,03,08,30,7.60
2010,05,03,08,31,7.70
2010,05,03,08,32,7.70
2010,05,03,08,33,7.80
2010,05,03,08,34,7.80
2010,05,03,08,35,7.80
2010,05,03,08,36,7.80
2010,05,03,08,37,7.80
2010,05,03,08,38,7.90
2010,05,03,08,39,7.90
2010,05,03,08,40,7.90
2010,05,03,08,41,8.00
2010,05,03,08,42,8.00
2010,05,03,08,43,8.00
2010,05,03,08,44,8.00
2010,05,03,08,45,8.10
2010,05,03,08,46,8.20
2010,05,03,08,47,8.20
2010,05,03,08,48,8.20
2010,05,03,08,49,8.20
2010,05,03,08,50,8.20
2010,05,03,08,51,8.20
2010,05,03,08,52,8.20
2010,05,03,08,53,8.20
2010,05,03,08,54,8.20
2010,05,03,08,55,8.20
2010,05,03,08,56,8.20
2010,05,03,08,57,8.20
2010,05,03,08,58,8.20
2010,05,03,08,59,8.10
2010,05,03,09,00,8.00
2010,05,03,09,01,8.00
2010,05,03,09,02,8.00
2010,05,03,09,03,7.90
2010,05,03,09,04,7.80
2010,05,03,09,05,7.80
2010,05,03,09,06,7.70
2010,05,03,09,07,7.70
2010,05,03,09,08,7.60
2010,05,03,09,09,7.60
2010,05,03,09,10,7.40
2010,05,03,09,11,7.40
2010,05,03,09,12,7.30
2010,05,03,09,13,7.30
2010,05,03,09,14,7.20
2010,05,03,09,15,7.10
2010,05,03,09,16,7.10
2010,05,03,09,17,7.10
2010,05,03,09,18,7.10
2010,05,03,09,19,7.10
2010,05,03,09,20,7.20
2010,05,03,09,21,7.20
2010,05,03,09,22,7.30
2010,05,03,09,23,7.40
2010,05,03,09,24,7.50
2010,05,03,09,25,7.60
2010,05,03,09,26,7.70
2010,05,03,09,27,7.80
2010,05,03,09,28,7.80
2010,05,03,09,29,7.90
2010,05,03,09,30,7.90
2010,05,03,09,31,7.90
2010,05,03,09,32,7.90
2010,05,03,09,33,7.90
2010,05,03,09,34,8.00
2010,05,03,09,35,8.00
2010,05,03,09,36,8.00
2010,05,03,09,37,8.10
2010,05,03,09,38,8.10
2010,05,03,09,39,8.10
2010,05,03,09,40,8.20
2010,05,03,09,41,8.20
2010,05,03,09,42,8.20
2010,05,03,09,43,8.20
2010,05,03,09,44,8.30
2010,05,03,09,45,8.30
2010,05,03,09,46,8.30
2010,05,03,09,47,8.40
2010,05,03,09,48,8.40
2010,05,03,09,49,8.50
2010,05,03,09,50,8.50
2010,05,03,09,51,8.50
2010,05,03,09,52,8.50
2010,05,03,09,53,8.50
2010,05,03,09,54,8.60
2010,05,03,09,55,8.60
2010,05,03,09,56,8.60
2010,05,03,09,57,8.70
2010,05,03,09,58,8.70
2010,05,03,09,59,8.70
2010,05,03,10,00,8.70
2010,05,03,10,01,8.80
2010,05,03,10,02,8.90
2010,05,03,10,03,9.00
2010,05,03,10,04,9.00
2010,05,03,10,05,9.00
2010,05,03,10,06,9.00
2010,05,03,10,07,9.00
2010,05,03,10,08,9.00
2010,05,03,10,09,9.00
2010,05,03,10,10,9.00
2010,05,03,10,11,8.90
2010,05,03,10,12,8.90
2010,05,03,10,13,8.90
2010,05,03,10,14,8.90
2010,05,03,10,15,8.90
2010,05,03,10,16,8.80
2010,05,03,10,17,8.80
2010,05,03,10,18,8.90
2010,05,03,10,19,8.90
2010,05,03,10,20,9.00
2010,05,03,10,21,9.00
2010,05,03,10,22,9.10
2010,05,03,10,23,9.10
2010,05,03,10,24,9.00
2010,05,03,10,25,9.10
2010,05,03,10,26,9.20
2010,05,03,10,27,9.20
2010,05,03,10,28,9.30
2010,05,03,10,29,9.30
2010,05,03,10,30,9.40
2010,05,03,10,31,9.40
2010,05,03,10,32,9.40
2010,05,03,10,33,9.40
2010,05,03,10,34,9.40
2010,05,03,10,35,9.50
2010,05,03,10,36,9.60
2010,05,03,10,37,9.60
2010,05,03,10,38,9.60
2010,05,03,10,39,9.60
2010,05,03,10,40,9.60
2010,05,03,10,41,9.70
2010,05,03,10,42,9.70
2010,05,03,10,43,9.70
2010,05,03,10,44,9.70
2010,05,03,10,45,9.70
2010,05,03,10,46,9.70
2010,05,03,10,47,9.70
2010,05,03,10,48,9.70
2010,05,03,10,49,9.60
2010,05,03,10,50,9.50
2010,05,03,10,51,9.50
2010,05,03,10,52,9.60
2010,05,03,10,53,9.60
2010,05,03,10,54,9.60
2010,05,03,10,55,9.60
2010,05,03,10,56,9.70
2010,05,03,10,57,9.70
2010,05,03,10,58,9.70
2010,05,03,10,59,9.70
2010,05,03,11,00,9.70
2010,05,03,11,01,9.70
2010,05,03,11,02,9.70
2010,05,03,11,03,9.80
2010,05,03,11,04,9.90
2010,05,03,11,05,9.90
2010,05,03,11,06,9.90
2010,05,03,11,07,9.90
2010,05,03,11,08,9.90
2010,05,03,11,09,9.90
2010,05,03,11,10,10.00
2010,05,03,11,11,10.10
2010,05,03,11,12,10.10
2010,05,03,11,13,10.10
2010,05,03,11,14,10.10
2010,05,03,11,15,10.10
2010,05,03,11,16,10.10
2010,05,03,11,17,10.10
2010,05,03,11,18,10.00
2010,05,03,11,19,9.90
2010,05,03,11,20,10.10
2010,05,03,11,21,10.10
2010,05,03,11,22,10.10
2010,05,03,11,23,10.10
2010,05,03,11,24,10.20
2010,05,03,11,25,10.20
2010,05,03,11,26,10.30
2010,05,03,11,27,10.30
2010,05,03,11,28,10.30
2010,05,03,11,29,10.40
2010,05,03,11,30,10.40
2010,05,03,11,31,10.30
2010,05,03,11,32,10.30
2010,05,03,11,33,10.20
2010,05,03,11,34,10.10
2010,05,03,11,35,10.10
2010,05,03,11,36,10.10
2010,05,03,11,37,10.10
2010,05,03,11,38,10.10
2010,05,03,11,39,10.10
2010,05,03,11,40,10.10
2010,05,03,11,41,10.10
2010,05,03,11,42,10.20
2010,05,03,11,43,10.30
2010,05,03,11,44,10.40
2010,05,03,11,45,10.40
2010,05,03,11,46,10.60
2010,05,03,11,47,10.60
2010,05,03,11,48,10.60
2010,05,03,11,49,10.60
2010,05,03,11,50,10.60
2010,05,03,11,51,10.60
2010,05,03,11,52,10.60
2010,05,03,11,53,10.70
2010,05,03,11,54,10.60
2010,05,03,11,55,10.60
2010,05,03,11,56,10.60
2010,05,03,11,57,10.60
2010,05,03,11,58,10.60
2010,05,03,11,59,10.60
2010,05,03,12,00,10.60
2010,05,03,12,01,10.60
2010,05,03,12,02,10.60
2010,05,03,12,03,10.60
2010,05,03,12,04,10.60
2010,05,03,12,05,10.60
2010,05,03,12,06,10.60
2010,05,03,12,07,10.60
2010,05,03,12,08,10.60
2010,05,03,12,09,10.60
2010,05,03,12,10,10.60
2010,05,03,12,11,10.60
2010,05,03,12,12,10.60
2010,05,03,12,13,10.60
2010,05,03,12,14,10.60
2010,05,03,12,15,10.60
2010,05,03,12,16,10.60
2010,05,03,12,17,10.60
2010,05,03,12,18,10.60
2010,05,03,12,19,10.60
2010,05,03,12,20,10.60
2010,05,03,12,21,10.60
2010,05,03,12,22,10.60
2010,05,03,12,23,10.70
2010,05,03,12,24,10.70
2010,05,03,12,25,10.80
2010,05,03,12,26,10.80
2010,05,03,12,27,10.80
2010,05,03,12,28,10.80
2010,05,03,12,29,10.70
2010,05,03,12,30,10.70
2010,05,03,12,31,10.70
2010,05,03,12,32,10.60
2010,05,03,12,33,10.60
2010,05,03,12,34,10.60
2010,05,03,12,35,10.60
2010,05,03,12,36,10.50
2010,05,03,12,37,10.40
2010,05,03,12,38,10.30
2010,05,03,12,39,10.20
2010,05,03,12,40,10.10
2010,05,03,12,41,10.10
2010,05,03,12,42,10.10
2010,05,03,12,43,10.10
2010,05,03,12,44,10.10
2010,05,03,12,45,10.10
2010,05,03,12,46,10.10
2010,05,03,12,47,10.20
2010,05,03,12,48,10.10
2010,05,03,12,49,10.10
2010,05,03,12,50,10.10
2010,05,03,12,51,10.20
2010,05,03,12,52,10.20
2010,05,03,12,53,10.20
2010,05,03,12,54,10.20
2010,05,03,12,55,10.30
2010,05,03,12,56,10.20
2010,05,03,12,57,10.20
2010,05,03,12,58,10.10
2010,05,03,12,59,10.10
2010,05,03,13,00,10.10
2010,05,03,13,01,10.10
2010,05,03,13,02,10.20
2010,05,03,13,03,10.40
2010,05,03,13,04,10.40
2010,05,03,13,05,10.50
2010,05,03,13,06,10.60
2010,05,03,13,07,10.50
2010,05,03,13,08,10.40
2010,05,03,13,09,10.40
2010,05,03,13,10,10.40
2010,05,03,13,11,10.30
2010,05,03,13,12,10.40
2010,05,03,13,13,10.40
2010,05,03,13,14,10.50
2010,05,03,13,15,10.60
2010,05,03,13,16,10.60
2010,05,03,13,17,10.60
2010,05,03,13,18,10.60
2010,05,03,13,19,10.50
2010,05,03,13,20,10.40
2010,05,03,13,21,10.40
2010,05,03,13,22,10.40
2010,05,03,13,23,10.40
2010,05,03,13,24,10.50
2010,05,03,13,25,10.60
2010,05,03,13,26,10.60
2010,05,03,13,27,10.60
2010,05,03,13,28,10.50
2010,05,03,13,29,10.40
2010,05,03,13,30,10.40
2010,05,03,13,31,10.40
2010,05,03,13,32,10.40
2010,05,03,13,33,10.40
2010,05,03,13,34,10.50
2010,05,03,13,35,10.50
2010,05,03,13,36,10.60
2010,05,03,13,37,10.50
2010,05,03,13,38,10.60
2010,05,03,13,39,10.60
2010,05,03,13,40,10.60
2010,05,03,13,41,10.60
2010,05,03,13,42,10.60
2010,05,03,13,43,10.70
2010,05,03,13,44,10.60
2010,05,03,13,45,10.60
2010,05,03,13,46,10.60
2010,05,03,13,47,10.60
2010,05,03,13,48,10.60
2010,05,03,13,49,10.60
2010,05,03,13,50,10.60
2010,05,03,13,51,10.60
2010,05,03,13,52,10.60
2010,05,03,13,53,10.60
2010,05,03,13,54,10.60
2010,05,03,13,55,10.70
2010,05,03,13,56,10.70
2010,05,03,13,57,10.80
2010,05,03,13,58,10.80
2010,05,03,13,59,10.90
2010,05,03,14,00,10.90
2010,05,03,14,01,10.90
2010,05,03,14,02,10.80
2010,05,03,14,03,10.60
2010,05,03,14,04,10.60
2010,05,03,14,05,10.60
2010,05,03,14,06,10.60
2010,05,03,14,07,10.50
2010,05,03,14,08,10.40
2010,05,03,14,09,10.30
2010,05,03,14,10,10.30
2010,05,03,14,11,10.30
2010,05,03,14,12,10.30
2010,05,03,14,13,10.30
2010,05,03,14,14,10.30
2010,05,03,14,15,10.20
2010,05,03,14,16,10.20
2010,05,03,14,17,10.20
2010,05,03,14,18,10.20
2010,05,03,14,19,10.20
2010,05,03,14,20,10.30
2010,05,03,14,21,10.40
2010,05,03,14,22,10.30
2010,05,03,14,23,10.20
2010,05,03,14,24,10.20
2010,05,03,14,25,10.20
2010,05,03,14,26,10.10
2010,05,03,14,27,10.10
2010,05,03,14,28,10.10
2010,05,03,14,29,10.10
2010,05,03,14,30,10.10
2010,05,03,14,31,10.10
2010,05,03,14,32,10.10
2010,05,03,14,33,10.10
2010,05,03,14,34,10.10
2010,05,03,14,35,10.10
2010,05,03,14,36,10.10
2010,05,03,14,37,10.10
2010,05,03,14,38,10.20
2010,05,03,14,39,10.20
2010,05,03,14,40,10.30
2010,05,03,14,41,10.30
2010,05,03,14,42,10.30
2010,05,03,14,43,10.40
2010,05,03,14,44,10.40
2010,05,03,14,45,10.40
2010,05,03,14,46,10.40
2010,05,03,14,47,10.40
2010,05,03,14,48,10.40
2010,05,03,14,49,10.30
2010,05,03,14,50,10.30
2010,05,03,14,51,10.30
2010,05,03,14,52,10.30
2010,05,03,14,53,10.30
2010,05,03,14,54,10.30
2010,05,03,14,55,10.30
2010,05,03,14,56,10.30
2010,05,03,14,57,10.30
2010,05,03,14,58,10.30
2010,05,03,14,59,10.20
2010,05,03,15,00,10.20
2010,05,03,15,01,10.10
2010,05,03,15,02,10.00
2010,05,03,15,03,9.90
2010,05,03,15,04,9.80
2010,05,03,15,05,9.80
2010,05,03,15,06,9.80
2010,05,03,15,07,9.70
2010,05,03,15,08,9.70
2010,05,03,15,09,9.80
2010,05,03,15,10,9.80
2010,05,03,15,11,9.80
2010,05,03,15,12,9.80
2010,05,03,15,13,9.70
2010,05,03,15,14,9.70
2010,05,03,15,15,9.70
2010,05,03,15,16,9.80
2010,05,03,15,17,9.90
2010,05,03,15,18,9.90
2010,05,03,15,19,9.90
2010,05,03,15,20,9.90
2010,05,03,15,21,9.90
2010,05,03,15,22,9.90
2010,05,03,15,23,9.80
2010,05,03,15,24,9.80
2010,05,03,15,25,9.90
2010,05,03,15,26,9.90
2010,05,03,15,27,9.90
2010,05,03,15,28,9.90
2010,05,03,15,29,9.90
2010,05,03,15,30,9.90
2010,05,03,15,31,9.90
2010,05,03,15,32,9.90
2010,05,03,15,33,9.90
2010,05,03,15,34,9.90
2010,05,03,15,35,9.90
2010,05,03,15,36,9.80
2010,05,03,15,37,9.80
2010,05,03,15,38,9.80
2010,05,03,15,39,9.90
2010,05,03,15,40,9.90
2010,05,03,15,41,9.90
2010,05,03,15,42,9.80
2010,05,03,15,43,9.70
2010,05,03,15,44,9.70
2010,05,03,15,45,9.60
2010,05,03,15,46,9.60
2010,05,03,15,47,9.50
2010,05,03,15,48,9.40
2010,05,03,15,49,9.40
2010,05,03,15,50,9.30
2010,05,03,15,51,9.30
2010,05,03,15,52,9.30
2010,05,03,15,53,9.30
2010,05,03,15,54,9.30
2010,05,03,15,55,9.30
2010,05,03,15,56,9.40
2010,05,03,15,57,9.40
2010,05,03,15,58,9.50
2010,05,03,15,59,9.60
2010,05,03,16,00,9.60
2010,05,03,16,01,9.70
2010,05,03,16,02,9.70
2010,05,03,16,03,9.70
2010,05,03,16,04,9.70
2010,05,03,16,05,9.60
2010,05,03,16,06,9.60
2010,05,03,16,07,9.50
2010,05,03,16,08,9.50
2010,05,03,16,09,9.40
2010,05,03,16,10,9.40
2010,05,03,16,11,9.30
2010,05,03,16,12,9.20
2010,05,03,16,13,9.20
2010,05,03,16,14,9.10
2010,05,03,16,15,9.10
2010,05,03,16,16,9.10
2010,05,03,16,17,9.00
2010,05,03,16,18,9.00
2010,05,03,16,19,9.00
2010,05,03,16,20,9.00
2010,05,03,16,21,9.00
2010,05,03,16,22,9.00
2010,05,03,16,23,9.00
2010,05,03,16,24,9.00
2010,05,03,16,25,8.90
2010,05,03,16,26,8.90
2010,05,03,16,27,8.90
2010,05,03,16,28,8.90
2010,05,03,16,29,8.90
2010,05,03,16,30,8.80
2010,05,03,16,31,8.80
2010,05,03,16,32,8.80
2010,05,03,16,33,8.80
2010,05,03,16,34,8.80
2010,05,03,16,35,8.80
2010,05,03,16,36,8.70
2010,05,03,16,37,8.70
2010,05,03,16,38,8.70
2010,05,03,16,39,8.70
2010,05,03,16,40,8.70
2010,05,03,16,41,8.70
2010,05,03,16,42,8.70
2010,05,03,16,43,8.70
2010,05,03,16,44,8.70
2010,05,03,16,45,8.70
2010,05,03,16,46,8.70
2010,05,03,16,47,8.70
2010,05,03,16,48,8.70
2010,05,03,16,49,8.70
2010,05,03,16,50,8.70
2010,05,03,16,51,8.70
2010,05,03,16,52,8.70
2010,05,03,16,53,8.60
2010,05,03,16,54,8.60
2010,05,03,16,55,8.60
2010,05,03,16,56,8.60
2010,05,03,16,57,8.70
2010,05,03,16,58,8.70
2010,05,03,16,59,8.70
2010,05,03,17,00,8.70
2010,05,03,17,01,8.70
2010,05,03,17,02,8.70
2010,05,03,17,03,8.60
2010,05,03,17,04,8.60
2010,05,03,17,05,8.60
2010,05,03,17,06,8.60
2010,05,03,17,07,8.60
2010,05,03,17,08,8.60
2010,05,03,17,09,8.50
2010,05,03,17,10,8.40
2010,05,03,17,11,8.20
2010,05,03,17,12,8.20
2010,05,03,17,13,8.10
2010,05,03,17,14,8.00
2010,05,03,17,15,7.90
2010,05,03,17,16,7.80
2010,05,03,17,17,7.80
2010,05,03,17,18,7.80
2010,05,03,17,19,7.80
2010,05,03,17,20,7.90
2010,05,03,17,21,8.00
2010,05,03,17,22,8.10
2010,05,03,17,23,8.10
2010,05,03,17,24,8.20
2010,05,03,17,25,8.20
2010,05,03,17,26,8.20
2010,05,03,17,27,8.20
2010,05,03,17,28,8.10
2010,05,03,17,29,8.00
2010,05,03,17,30,8.00
2010,05,03,17,31,7.90
2010,05,03,17,32,7.90
2010,05,03,17,33,7.80
2010,05,03,17,34,7.80
2010,05,03,17,35,7.80
2010,05,03,17,36,7.80
2010,05,03,17,37,7.80
2010,05,03,17,38,7.80
2010,05,03,17,39,7.80
2010,05,03,17,40,7.80
2010,05,03,17,41,7.90
2010,05,03,17,42,7.90
2010,05,03,17,43,7.90
2010,05,03,17,44,8.00
2010,05,03,17,45,8.10
2010,05,03,17,46,8.10
2010,05,03,17,47,8.20
2010,05,03,17,48,8.20
2010,05,03,17,49,8.30
2010,05,03,17,50,8.40
2010,05,03,17,51,8.50
2010,05,03,17,52,8.50
2010,05,03,17,53,8.50
2010,05,03,17,54,8.40
2010,05,03,17,55,8.40
2010,05,03,17,56,8.30
2010,05,03,17,57,8.30
2010,05,03,17,58,8.10
2010,05,03,17,59,7.90
2010,05,03,18,00,7.80
2010,05,03,18,01,7.80
2010,05,03,18,02,7.70
2010,05,03,18,03,7.60
2010,05,03,18,04,7.60
2010,05,03,18,05,7.60
2010,05,03,18,06,7.60
2010,05,03,18,07,7.60
2010,05,03,18,08,7.50
2010,05,03,18,09,7.50
2010,05,03,18,10,7.40
2010,05,03,18,11,7.40
2010,05,03,18,12,7.40
2010,05,03,18,13,7.40
2010,05,03,18,14,7.40
2010,05,03,18,15,7.50
2010,05,03,18,16,7.50
2010,05,03,18,17,7.60
2010,05,03,18,18,7.60
2010,05,03,18,19,7.60
2010,05,03,18,20,7.60
2010,05,03,18,21,7.60
2010,05,03,18,22,7.70
2010,05,03,18,23,7.70
2010,05,03,18,24,7.70
2010,05,03,18,25,7.70
2010,05,03,18,26,7.70
2010,05,03,18,27,7.70
2010,05,03,18,28,7.70
2010,05,03,18,29,7.70
2010,05,03,18,30,7.70
2010,05,03,18,31,7.80
2010,05,03,18,32,7.80
2010,05,03,18,33,7.80
2010,05,03,18,34,7.80
2010,05,03,18,35,7.80
2010,05,03,18,36,7.80
2010,05,03,18,37,7.90
2010,05,03,18,38,7.90
2010,05,03,18,39,7.90
2010,05,03,18,40,7.90
2010,05,03,18,41,8.00
2010,05,03,18,42,8.00
2010,05,03,18,43,8.10
2010,05,03,18,44,8.10
2010,05,03,18,45,8.10
2010,05,03,18,46,8.10
2010,05,03,18,47,8.10
2010,05,03,18,48,8.20
2010,05,03,18,49,8.20
2010,05,03,18,50,8.20
2010,05,03,18,51,8.10
2010,05,03,18,52,8.00
2010,05,03,18,53,8.00
2010,05,03,18,54,7.90
2010,05,03,18,55,7.90
2010,05,03,18,56,7.90
2010,05,03,18,57,7.90
2010,05,03,18,58,7.90
2010,05,03,18,59,7.80
2010,05,03,19,00,7.80
2010,05,03,19,01,7.80
2010,05,03,19,02,7.80
2010,05,03,19,03,7.80
2010,05,03,19,04,7.80
2010,05,03,19,05,7.80
2010,05,03,19,06,7.80
2010,05,03,19,07,7.80
2010,05,03,19,08,7.80
2010,05,03,19,09,7.80
2010,05,03,19,10,7.80
2010,05,03,19,11,7.70
2010,05,03,19,12,7.70
2010,05,03,19,13,7.70
2010,05,03,19,14,7.70
2010,05,03,19,15,7.70
2010,05,03,19,16,7.80
2010,05,03,19,17,7.70
2010,05,03,19,18,7.70
2010,05,03,19,19,7.70
2010,05,03,19,20,7.70
2010,05,03,19,21,7.70
2010,05,03,19,22,7.70
2010,05,03,19,23,7.70
2010,05,03,19,24,7.70
2010,05,03,19,25,7.70
2010,05,03,19,26,7.70
2010,05,03,19,27,7.80
2010,05,03,19,28,7.80
2010,05,03,19,29,7.80
2010,05,03,19,30,7.80
2010,05,03,19,31,7.70
2010,05,03,19,32,7.70
2010,05,03,19,33,7.70
2010,05,03,19,34,7.70
2010,05,03,19,35,7.70
2010,05,03,19,36,7.60
2010,05,03,19,37,7.50
2010,05,03,19,38,7.40
2010,05,03,19,39,7.40
2010,05,03,19,40,7.30
2010,05,03,19,41,7.30
2010,05,03,19,42,7.30
2010,05,03,19,43,7.30
2010,05,03,19,44,7.20
2010,05,03,19,45,7.20
2010,05,03,19,46,7.20
2010,05,03,19,47,7.20
2010,05,03,19,48,7.20
2010,05,03,19,49,7.20
2010,05,03,19,50,7.20
2010,05,03,19,51,7.20
2010,05,03,19,52,7.20
2010,05,03,19,53,7.20
2010,05,03,19,54,7.20
2010,05,03,19,55,7.20
2010,05,03,19,56,7.20
2010,05,03,19,57,7.30
2010,05,03,19,58,7.30
2010,05,03,19,59,7.20
2010,05,03,20,00,7.20
2010,05,03,20,01,7.20
2010,05,03,20,02,7.20
2010,05,03,20,03,7.20
2010,05,03,20,04,7.20
2010,05,03,20,05,7.20
2010,05,03,20,06,7.10
2010,05,03,20,07,7.10
2010,05,03,20,08,7.10
2010,05,03,20,09,7.10
2010,05,03,20,10,7.10
2010,05,03,20,11,7.10
2010,05,03,20,12,7.10
2010,05,03,20,13,7.10
2010,05,03,20,14,7.10
2010,05,03,20,15,7.10
2010,05,03,20,16,7.10
2010,05,03,20,17,7.10
2010,05,03,20,18,7.10
2010,05,03,20,19,7.10
